Location: Leeds
(37.2390°N, 113.3580°W)
Time: 23:00:49
(UTC-06:00)

SL-08 RB Rocket - Visible Passes

Search period start: 29 July 2014 00:00
Search period end: 08 August 2014 00:00
Orbit: 650 x 689 km, 98.1° (Epoch: 29 July)

Date Brightness Start Highest point End Pass type
(mag) Time Alt. Az. Time Alt. Az. Time Alt. Az.
29 Jul 4.8 22:23:28 25° E 22:24:23 27° ENE 22:28:10 10° NNE visible
30 Jul 5.4 00:01:41 24° W 00:01:41 24° W 00:05:05 10° NW visible
30 Jul 3.7 22:56:30 60° E 22:56:48 62° ENE 23:01:13 10° N visible
31 Jul 6.4 00:34:42 10° W 00:34:42 10° W 00:35:08 10° W visible
31 Jul 5.7 21:51:19 11° E 21:52:46 13° ENE 21:54:45 10° NE visible
31 Jul 4.1 23:29:31 56° W 23:29:31 56° W 23:33:46 10° NNW visible
01 Aug 4.8 22:24:20 26° E 22:25:01 27° ENE 22:28:48 10° NNE visible
02 Aug 5.5 00:02:32 24° W 00:02:32 24° W 00:05:41 10° NW visible
02 Aug 3.7 22:57:21 62° E 22:57:25 63° ENE 23:01:51 10° N visible
03 Aug 5.7 21:52:10 12° E 21:53:23 13° ENE 21:55:25 10° NE visible
03 Aug 4.2 23:30:22 53° WNW 23:30:22 53° WNW 23:34:23 10° NNW visible
04 Aug 4.7 22:25:12 27° E 22:25:38 28° ENE 22:29:26 10° NNE visible
05 Aug 5.6 00:03:24 23° W 00:03:24 23° W 00:06:17 10° NW visible
05 Aug 3.7 22:58:13 63° ENE 22:58:13 63° ENE 23:02:29 10° N visible
06 Aug 5.6 21:53:02 12° ENE 21:54:00 13° ENE 21:56:05 10° NE visible
06 Aug 4.4 23:31:14 49° WNW 23:31:14 49° WNW 23:34:59 10° NNW visible
07 Aug 4.7 22:26:03 28° ENE 22:26:15 28° ENE 22:30:04 10° NNE visible
